XE2WR-3 Weather Reports


Display with metric or nautical units.
time (UTC)temp
F
wind
direction
speed
MPH
gust
MPH
rain 1hr
in
rain 24hr
in
rain mn
in
humidity
%
barometer
mb
20260507103002 78 60 6.0 10.0 0.00 0.00 0.00 72 1011.3
20260507101602 78 62 5.0 10.0 0.00 0.00 0.00 73 1011.5
20260507100111 78 67 4.0 7.0 0.00 0.00 0.00 75 1011.4
20260507094555 78 48 5.0 8.0 0.00 0.00 0.00 76 1011.4
20260507093057 79 65 4.0 9.0 0.00 0.00 0.00 78 1011.4
20260507091553 79 57 4.0 7.0 0.00 0.00 0.00 79 1011.4
20260507090050 79 98 7.0 9.0 0.00 0.00 0.00 79 1011.4
20260507084550 79 74 6.0 9.0 0.00 0.00 0.00 80 1011.3
20260507083104 80 72 3.0 8.0 0.00 0.00 0.00 80 1011.3
20260507081556 80 101 3.0 8.0 0.00 0.00 0.00 80 1011.3
20260507080043 80 61 4.0 8.0 0.00 0.00 0.00 80 1011.7
20260507074541 80 69 6.0 11.0 0.00 0.00 0.00 79 1012.0
20260507073052 80 79 7.0 12.0 0.00 0.00 0.00 79 1012.1
20260507071538 80 60 5.0 11.0 0.00 0.00 0.00 79 1012.0
20260507070040 80 92 6.0 12.0 0.00 0.00 0.00 79 1011.9
20260507064538 81 65 7.0 11.0 0.00 0.00 0.00 78 1011.9
20260507063033 82 68 5.0 11.0 0.00 0.00 0.00 77 1012.0
20260507061529 82 73 5.0 13.0 0.00 0.00 0.00 76 1012.0
20260507060024 82 83 8.0 13.0 0.00 0.00 0.00 75 1011.7
20260507054526 82 62 8.0 16.0 0.00 0.00 0.00 75 1011.4
20260507053022 83 124 8.0 20.0 0.00 0.00 0.00 74 1011.3
20260507051522 83 117 7.0 17.0 0.00 0.00 0.00 72 1011.4
20260507050031 84 144 6.0 12.0 0.00 0.00 0.00 70 1011.3
20260507044530 85 77 6.0 14.0 0.00 0.00 0.00 68 1011.3
20260507043016 85 65 7.0 15.0 0.00 0.00 0.00 66 1011.0
20260507041527 85 44 8.0 16.0 0.00 0.00 0.00 64 1011.0
20260507040011 86 78 6.0 11.0 0.00 0.00 0.00 62 1010.7
20260507034516 86 86 6.0 13.0 0.00 0.00 0.00 61 1010.6
20260507033008 87 95 6.0 12.0 0.00 0.00 0.00 59 1010.3
20260507031506 87 80 10.0 15.0 0.00 0.00 0.00 59 1010.0
20260507030005 87 63 7.0 11.0 0.00 0.00 0.00 58 1010.0
20260507024503 87 68 7.0 13.0 0.00 0.00 0.00 59 1009.6
20260507023001 87 61 8.0 17.0 0.00 0.00 0.00 59 1009.4
20260507021559 87 67 8.0 14.0 0.00 0.00 0.00 59 1009.1
20260507020109 88 78 13.0 18.0 0.00 0.00 0.00 58 1008.8
20260507014606 89 73 12.0 21.0 0.00 0.00 0.00 54 1008.6
20260507013055 90 70 9.0 18.0 0.00 0.00 0.00 50 1008.2
20260507011553 90 78 11.0 16.0 0.00 0.00 0.00 49 1007.9
20260507010051 90 86 9.0 17.0 0.00 0.00 0.00 49 1007.5
20260507004549 91 89 14.0 20.0 0.00 0.00 0.00 49 1007.3
20260507003048 91 78 12.0 18.0 0.00 0.00 0.00 48 1007.0
20260507001548 92 110 11.0 18.0 0.00 0.00 0.00 51 1006.7
20260507000045 92 75 11.0 21.0 0.00 0.00 0.00 50 1006.5
20260506234551 92 71 8.0 15.0 0.00 0.00 0.00 51 1006.4
20260506233045 92 55 12.0 18.0 0.00 0.00 0.00 53 1006.3
20260506231551 92 108 12.0 16.0 0.00 0.00 0.00 52 1006.3
20260506230052 92 60 8.0 18.0 0.00 0.00 0.00 51 1006.2
20260506224541 93 94 9.0 16.0 0.00 0.00 0.00 51 1006.2
20260506223050 93 77 11.0 17.0 0.00 0.00 0.00 51 1006.2
20260506221539 93 73 9.0 15.0 0.00 0.00 0.00 51 1006.3
20260506220038 93 63 9.0 15.0 0.00 0.00 0.00 51 1006.2
20260506214537 93 88 8.0 15.0 0.00 0.00 0.00 50 1006.3
20260506213042 94 70 5.0 14.0 0.00 0.00 0.00 49 1006.2
20260506211542 94 56 10.0 13.0 0.00 0.00 0.00 47 1006.3
20260506210033 94 62 8.0 11.0 0.00 0.00 0.00 47 1006.4
20260506204524 93 111 6.0 10.0 0.00 0.00 0.00 48 1006.6
20260506203027 93 123 5.0 11.0 0.00 0.00 0.00 49 1006.7
20260506201530 93 68 6.0 11.0 0.00 0.00 0.00 49 1006.7
20260506200013 92 105 7.0 11.0 0.00 0.00 0.00 52 1007.0
20260506194508 91 70 4.0 11.0 0.00 0.00 0.00 52 1007.1
20260506193008 91 65 6.0 13.0 0.00 0.00 0.00 53 1007.4
20260506191506 90 81 5.0 11.0 0.00 0.00 0.00 56 1007.5
20260506190005 90 66 6.0 13.0 0.00 0.00 0.00 56 1007.6
20260506184502 90 64 5.0 11.0 0.00 0.00 0.00 58 1007.8
20260506183105 89 122 5.0 10.0 0.00 0.00 0.00 60 1008.1
20260506181558 88 139 6.0 9.0 0.00 0.00 0.00 61 1008.4
20260506180056 87 60 6.0 11.0 0.00 0.00 0.00 62 1008.5
20260506174555 87 101 5.0 9.0 0.00 0.00 0.00 63 1008.5
20260506173053 86 101 7.0 10.0 0.00 0.00 0.00 64 1008.6
20260506171553 86 106 4.0 10.0 0.00 0.00 0.00 66 1008.6
20260506170107 86 75 4.0 7.0 0.00 0.00 0.00 63 1008.7
20260506164545 84 53 3.0 6.0 0.00 0.00 0.00 66 1008.7
20260506163054 83 77 4.0 7.0 0.00 0.00 0.00 70 1008.7
20260506161543 82 68 4.0 6.0 0.00 0.00 0.00 72 1008.7
20260506160041 82 73 4.0 6.0 0.00 0.00 0.00 74 1008.7
20260506154540 81 71 2.0 6.0 0.00 0.00 0.00 76 1008.7
20260506153034 80 53 2.0 6.0 0.00 0.00 0.00 79 1008.7
20260506151534 79 73 3.0 6.0 0.00 0.00 0.00 79 1008.8
20260506150030 78 53 3.0 6.0 0.00 0.00 0.00 80 1008.7
20260506144526 77 78 3.0 7.0 0.00 0.00 0.00 80 1008.7
20260506143031 77 92 4.0 7.0 0.00 0.00 0.00 80 1008.7
20260506141525 77 113 1.0 5.0 0.00 0.00 0.00 79 1008.6
20260506140023 76 74 2.0 5.0 0.00 0.00 0.00 80 1008.4
20260506134522 76 77 1.0 4.0 0.00 0.00 0.00 80 1008.4
20260506133020 76 90 1.0 3.0 0.00 0.00 0.00 80 1008.2
20260506131522 75 68 2.0 3.0 0.00 0.00 0.00 78 1008.1
20260506130020 74 86 2.0 3.0 0.00 0.00 0.00 69 1007.9
20260506124517 73 97 1.0 4.0 0.00 0.00 0.00 51 1007.7
20260506123014 72 226 0.0 1.0 0.00 0.00 0.00 48 1007.5
20260506121518 71 226 0.0 0.0 0.00 0.00 0.00 56 1007.2
20260506120009 71 226 0.0 2.0 0.00 0.00 0.00 59 1007.1
20260506114508 71 226 0.0 1.0 0.00 0.00 0.00 45 1007.1
20260506113016 72 214 1.0 3.0 0.00 0.00 0.00 55 1007.0
20260506111506 72 214 1.0 2.0 0.00 0.00 0.00 44 1007.0
20260506110008 71 273 0.0 0.0 0.00 0.00 0.00 41 1007.1
20260506104602 72 273 0.0 0.0 0.00 0.00 0.00 50 1006.7